Location: Ch?enovice
(49.7164°N, 15.2160°E)
Time: 05:37:51
(UTC+00:00)

Cosmos 1378 Rocket - Pass Details

Date: 23 May 2024
Orbit: 599 x 622 km, 82.5° (Epoch: 15 June)

Event Time Altitude Azimuth Distance (km) Brightness Sun altitude
Exits shadow 01:33:07 - 169° (S) 2,280 6.1 -11.5°
Reaches altitude 10° 01:33:59 10° 167° (SSE) 1,935 5.7 -11.4°
Maximum altitude 01:38:05 47° 94° (E) 806 4.4 -11.0°
Drops below altitude 10° 01:42:13 10° 21° (NNE) 1,955 7.4 -10.6°
Sets 01:44:30 0° 15° (NNE) 2,865 8.3 -10.3°
